www.pogodaiklimat.ru
ПОГОДА в Аэропорту Ивало
Время
(UTC), дата
01 9.10
02 9.10
03 9.10
04 9.10
05 9.10
06 9.10
07 9.10
08 9.10
09 9.10
10 9.10
11 9.10
12 9.10
13 9.10
14 9.10
15 9.10
16 9.10
17 9.10
18 9.10
19 9.10
20 9.10
21 9.10
22 9.10
23 9.10
00 10.10
01 10.10
02 10.10
03 10.10
04 10.10
05 10.10
06 10.10
07 10.10
08 10.10
09 10.10
10 10.10
11 10.10
12 10.10
13 10.10
14 10.10
15 10.10
16 10.10
17 10.10
18 10.10
19 10.10
20 10.10
21 10.10
22 10.10
23 10.10
00 11.10
01 11.10
02 11.10
03 11.10
04 11.10
05 11.10
06 11.10
07 11.10
08 11.10
09 11.10
10 11.10
11 11.10
12 11.10
13 11.10
14 11.10
15 11.10
16 11.10
17 11.10
18 11.10
19 11.10
20 11.10
21 11.10
22 11.10
23 11.10
00 12.10
01 12.10
02 12.10
03 12.10
04 12.10
05 12.10
06 12.10
07 12.10
08 12.10
09 12.10
10 12.10
11 12.10
12 12.10
13 12.10
14 12.10
15 12.10
16 12.10
17 12.10
18 12.10
19 12.10
20 12.10
21 12.10
22 12.10
23 12.10
00 13.10
01 13.10
02 13.10
03 13.10
04 13.10
05 13.10
06 13.10
07 13.10
08 13.10
09 13.10
10 13.10
11 13.10
12 13.10
13 13.10
14 13.10
15 13.10
16 13.10
17 13.10
18 13.10
19 13.10
20 13.10
21 13.10
22 13.10
23 13.10
00 14.10
01 14.10
02 14.10
03 14.10
04 14.10
05 14.10
06 14.10
07 14.10
08 14.10
09 14.10
10 14.10
11 14.10
12 14.10
14 14.10
15 14.10
16 14.10
17 14.10
18 14.10
19 14.10
20 14.10
21 14.10
22 14.10
23 14.10
00 15.10
01 15.10
02 15.10
03 15.10
04 15.10
05 15.10
06 15.10
07 15.10
08 15.10
09 15.10
10 15.10
11 15.10
12 15.10
13 15.10
14 15.10
15 15.10
16 15.10
17 15.10
18 15.10
19 15.10
20 15.10
21 15.10
22 15.10
23 15.10
Ветер
(напр.,м/с)
Видим. Явления Облачность Т
(С)
Тd
(С)
f
(%)
Тe
(С)
Тes
(С)
Комфортность P
(гПа)
Po
(гПа)
Тmin
(С)
Tmax
(С)
R
(мм)
R24
(мм)
S
(см)
С 6-9
{11}
65 км 10/0 300 м
[]
+2.5 +0.4 86 -3 -3 прохладно 1001.7 983.5
С 3-5
{8}
40 км слаб. ливневой дождь 10/0 300 м
[]
+2.2 +0.6 89 -2 -2 по сезону 1001.1 982.9
С 4-7
{8}
40 км слаб. ливневой дождь 10/0 300 м
[]
+2.2 +0.7 90 -3 -3 прохладно 1000.4 982.2
С 4-7
{10}
45 км в посл. час дождь 10/0 300 м
[]
+2.5 +0.8 89 -2 -2 по сезону 999.7 981.6
С 5-8
{9}
15 км слаб. ливневой дождь 10/0 200 м
[]
+2.5 +1.3 92 -3 -3 прохладно 999.4 981.3
С 5-9
{9}
30 км в посл. час осадки 10/0 200 м
[]
+2.7 +1.4 91 -3 -3 прохладно 999.0 980.9 +1.6 +2.8
С 5-9
{9}
28 км слаб. дождь 10/0 300 м
[]
+2.6 +1.1 90 -3 -3 прохладно 998.6 980.4
С 4-6
{10}
12 км слаб. дождь 10/0 300 м
[]
+2.1 +1.2 94 -3 -3 прохладно 998.5 980.4
С 4-6
{8}
14 км слаб. дождь 10/0 300 м
[]
+2.3 +1.2 92 -3 -2 прохладно 998.1 980.0
С 4-6
{7}
21 км слаб. ливневой дождь 10/0 300 м
[]
+2.6 +1.3 91 -2 -2 по сезону 997.6 979.5
С 5-7
{8}
20 км слаб. дождь 10/0 300 м
[]
+2.7 +1.3 90 -3 -2 прохладно 997.2 979.1
С 4-8
{8}
13 км слаб. дождь 10/0 300 м
[]
+2.5 +1.5 93 -3 -2 прохладно 997.0 978.9
С 4-6
{8}
19 км слаб. дождь 10/0 300 м
[]
+2.2 +1.3 94 -3 -3 прохладно 996.8 978.7
С 3-6
{6}
22 км слаб. дождь 10/0 300 м
[]
+2.3 +1.3 93 -2 -2 по сезону 996.9 978.8
С 3-4
{5}
16 км слаб. дождь 10/0 200 м
[]
+2.3 +1.4 94 -2 -2 по сезону 996.9 978.8
-4
{5}
>70 км слаб. ливневой дождь 10/0 200 м
[]
+2.6 +1.6 93 996.9 978.8
С 3-4
{6}
>70 км 9/8 300 м
[]
+2.1 +1.1 93 -2 -2 по сезону 997.2 979.1
СВ 1-1
{4}
50 км 9/9 200 м
[]
+1.7 +0.9 94 -0 -0 по сезону 997.2 979.0 +1.6 +2.8
СЗ 1-2
{2}
5000 м в посл. час дождь 10/6 200 м
[]
+1.2 +0.8 97 -1 -1 по сезону 997.3 979.1
ЮЗ 1-3
{3}
35 км 3/0 200 м
[]
+0.7 +0.4 98 -1 -1 по сезону 997.5 979.3
ЮЗ 1-2
{3}
50 км в посл. час туман 9/0 300 м
[]
+0.2 -0.2 97 -2 -2 по сезону 997.6 979.4
З 2-4
{4}
8000 м слаб. ливневой снег 9/9 300 м
[]
+0.3 -0.1 97 -4 -4 прохладно 997.5 979.2
З 2-2
{3}
65 км 10/10 300 м
[]
+0.7 0.0 95 -3 -3 прохладно 997.3 979.1
С 2-4
{4}
50 км 10/10 100 м
[]
+0.7 +0.1 96 -3 -3 прохладно 997.4 979.1
СЗ 3-4
{4}
>70 км 10/0 100 м
[]
+0.1 -0.5 96 -5 -5 холодно 997.3 979.1
СЗ 1-2
{4}
>70 км 10/10 100 м
[]
+0.1 -0.7 94 -2 -2 по сезону 997.3 979.0
СЗ 1-2
{3}
50 км 9/0 200 м
[]
-0.2 -1.0 94 -2 -2 по сезону 997.2 979.0
З 2-3
{3}
60 км 10/10 100 м
[]
-0.3 -1.0 95 -4 -4 прохладно 997.2 979.0
З 3-4
{4}
>70 км 10/9 100 м
[]
-0.3 -1.1 94 -5 -5 холодно 997.2 978.9
З 3-5
{5}
50 км 6/0 1000 м
[]
-0.2 -1.2 93 -5 -5 холодно 997.0 978.7 -0.6 +1.7
З 2-3
{3}
>70 км 9/8 200 м
[]
0.0 -1.1 92 -4 -4 прохладно 997.1 978.8
З 2-3
{3}
>70 км 9/9 200 м
[]
+0.4 -0.9 91 -3 -3 прохладно 996.9 978.6
З 2-4
{4}
50 км 1/1 300 м
[]
+1.2 -0.7 87 -2 -1 по сезону 996.8 978.6
З 3-4
{5}
>70 км 4/4 300 м
[]
+1.7 -0.5 85 -3 -2 прохладно 996.5 978.4
З 3-5
{5}
>70 км 10/10 300 м
[]
+2.2 -0.6 82 -2 -2 по сезону 996.6 978.5
СЗ 3-5
{5}
50 км 9/9 300 м
[]
+2.0 -0.4 84 -2 -2 по сезону 996.5 978.4
З 3-6
{6}
60 км 9/9 300 м
[]
+2.1 -0.1 85 -2 -2 по сезону 996.7 978.6
З 2-3
{5}
>70 км в посл. час дождь 9/9 300 м
[]
+2.0 -0.2 85 -1 -1 по сезону 996.7 978.6
З 2-4
{5}
50 км 9/9 600 м
[]
+1.6 -0.2 88 -2 -2 по сезону 996.6 978.4
З 3-4
{4}
50 км слаб. ливневой дождь 10/10 300 м
[]
+1.3 +0.2 92 -3 -3 прохладно 996.7 978.5
З 2-4
{4}
>70 км 10/0 600 м
[]
+1.5 +0.2 91 -2 -2 по сезону 996.5 978.3
З 2-4
{5}
50 км 10/0 600 м
[]
+1.6 +0.2 90 -2 -2 по сезону 996.3 978.2 -0.3 +2.3
З 3-4
{4}
>70 км в посл. час дождь 10/0 300 м
[]
+1.4 +0.4 93 -3 -3 прохладно 996.4 978.2
З 2-3
{4}
>70 км 9/0 200 м
[]
+1.3 0.0 91 -2 -2 по сезону 996.3 978.1
З 2-3
{5}
50 км 10/0 600 м
[]
+0.8 -0.2 93 -3 -3 прохладно 996.3 978.1
З 2-3
{3}
60 км в посл. час дождь 8/0 200 м
[]
+0.5 -0.4 94 -3 -3 прохладно 996.3 978.1
ЮЗ 3-3
{3}
>70 км 10/0 300 м
[]
0.0 -0.6 96 -5 -5 холодно 996.5 978.2
ЮЗ 3-4
{4}
50 км 10/0 300 м
[]
+0.3 -0.5 94 -4 -4 прохладно 996.3 978.1
ЮЗ 3-4
{4}
50 км 10/0 200 м
[]
+0.5 -0.3 94 -4 -4 прохладно 996.4 978.2
З 3-4
{5}
>70 км 10/10 200 м
[]
+0.7 -0.4 92 -4 -4 прохладно 996.3 978.1
ЮЗ 2-3
{5}
50 км 10/10 600 м
[]
+0.1 -0.6 95 -4 -4 прохладно 996.2 978.0
ЮЗ 3-4
{4}
>70 км 9/9 100 м
[]
-0.3 -0.9 96 -5 -5 холодно 996.2 978.0
Ю 1-1
{4}
>70 км 10/10 200 м
[]
-0.8 -1.5 95 -3 -3 прохладно 996.2 977.9
ЮЗ 3-4
{4}
50 км 10/0 200 м
[]
-0.2 -1.0 94 -5 -5 холодно 996.1 977.9 -0.9 +1.6
ЮЗ 2-2
{3}
45 км 10/10 200 м
[]
0.0 -0.9 94 -4 -4 прохладно 996.3 978.0
ЮЗ 3-3
{3}
>70 км 10/10 200 м
[]
+0.4 -0.8 92 -4 -4 прохладно 996.4 978.2
Ю 1-2
{3}
50 км 10/0 200 м
[]
+1.0 -0.7 88 -1 -0 по сезону 996.4 978.2
Ю 1-2
{2}
>70 км 9/9 200 м
[]
+1.3 -0.7 87 -1 -0 по сезону 996.3 978.2
ЮВ 1-1
{1}
>70 км 10/0 300 м
[]
+1.7 -0.6 85 0 +1 по сезону 996.3 978.1
штиль 0-1
{1}
50 км 10/0 300 м
[]
+1.8 -0.6 84 +1 +1 по сезону 996.4 978.2
штиль 0-1
{2}
>70 км 10/0 300 м
[]
+1.8 -0.4 85 +1 +1 по сезону 996.4 978.3
-2
{2}
>70 км 10/0 200 м
[]
+1.7 -0.2 87 996.4 978.3
С 1-2
{2}
50 км 10/10 300 м
[]
+1.2 -0.4 89 -1 -1 по сезону 996.4 978.2
С 1-2
{3}
>70 км 9/9 300 м
[]
+0.7 -0.5 92 -1 -1 по сезону 996.4 978.2
С 1-2
{2}
27 км 9/9 200 м
[]
-0.3 -0.9 96 -3 -3 прохладно 996.5 978.3
-1
{1}
50 км 10/10 300 м
[]
0.0 -0.4 97 996.5 978.2 -0.5 +2.0
СВ 1-1
{2}
65 км 10/10 200 м
[]
+0.1 -0.3 97 -2 -2 по сезону 996.3 978.1
СВ 1-1
{2}
55 км 10/10 200 м
[]
-0.3 -0.7 97 -3 -3 прохладно 996.4 978.1
СВ 1-2
{2}
15 км слаб. ливневой дождь 10/0 100 м
[]
-0.3 -0.6 98 -3 -3 прохладно 996.4 978.2
СВ 1-2
{2}
30 км слаб. ливневой снег 10/0 100 м
[]
-0.3 -0.4 99 -3 -3 прохладно 996.7 978.4
СВ 2-2
{2}
1200 м слаб. ливневой дождь 10/10 50 м
[]
-0.7 -0.8 99 -5 -5 холодно 996.9 978.6
СВ 3-3
{3}
30 км в посл. час туман 10/10 50 м
[]
-0.7 -0.8 99 -6 -6 холодно 996.7 978.4
СВ 3-4
{4}
55 км в посл. час дождь 10/10 50 м
[]
-0.7 -0.9 99 -6 -6 холодно 996.7 978.4
СВ 2-3
{3}
16 км слаб. ливневой снег 10/10 50 м
[]
-0.9 -1.2 98 -5 -5 холодно 996.7 978.3
СВ 2-3
{3}
40 км слаб. ливневой дождь 10/0 300 м
[]
-1.1 -1.5 97 -5 -5 холодно 996.8 978.4
СВ 3-5
{5}
50 км слаб. ливневой снег 10/0 300 м
[]
-1.3 -2.1 94 -6 -6 холодно 996.6 978.3
СВ 3-4
{4}
50 км слаб. ливневой снег 10/0 300 м
[]
-1.5 -2.6 92 -7 -7 холодно 996.5 978.1
СВ 2-3
{4}
45 км слаб. ливневой дождь 10/0 300 м
[]
-1.3 -2.5 92 -5 -5 холодно 996.5 978.1 -1.6 +0.2
СВ 3-4
{5}
15 км слаб. снег 10/0 300 м
[]
-1.2 -2.5 91 -6 -6 холодно 996.6 978.3
СВ 3-5
{5}
35 км слаб. ливневой снег 10/0 300 м
[]
-0.8 -2.5 88 -6 -5 холодно 996.8 978.5
С 4-5
{5}
50 км слаб. ливневой снег 10/0 300 м
[]
-0.4 -2.5 86 -6 -6 холодно 996.7 978.4
СВ 3-5
{6}
27 км слаб. ливневой снег 10/0 300 м
[]
-0.4 -2.4 86 -5 -5 холодно 996.7 978.4
С 4-6
{6}
21 км слаб. снег 10/10 300 м
[]
-0.5 -2.4 87 -6 -6 холодно 996.8 978.5
СВ 4-6
{6}
45 км слаб. ливневой дождь 10/0 600 м
[]
-0.1 -2.3 85 -6 -5 холодно 996.7 978.5
С 4-7
{7}
65 км в посл. час дождь 9/8 300 м
[]
+0.3 -2.0 85 -5 -5 холодно 996.7 978.4
СВ 5-6
{8}
>70 км в посл. час снег 9/8 300 м
[]
+0.4 -2.0 84 -6 -6 холодно 996.6 978.4
СВ 4-6
{6}
50 км в посл. час снег 9/9 300 м
[]
+0.4 -1.5 87 -5 -5 холодно 996.7 978.5
СВ 4-5
{6}
>70 км в посл. час снег 10/9 300 м
[]
+0.3 -1.5 88 -5 -5 холодно 996.8 978.6
СВ 3-4
{5}
65 км в посл. час дождь 10/10 300 м
[]
+0.2 -1.1 91 -5 -5 холодно 997.0 978.8
СВ 3-4
{4}
50 км в посл. час снег 10/0 300 м
[]
+0.3 -1.3 89 -4 -4 прохладно 997.1 978.8 -1.3 +0.5
СВ 4-5
{7}
>70 км 10/0 300 м
[]
+0.8 -1.3 86 -4 -4 прохладно 997.2 979.0
СВ 3-5
{5}
>70 км 10/0 300 м
[]
+0.7 -1.1 88 -4 -4 прохладно 997.4 979.2
СВ 4-5
{6}
50 км 10/0 300 м
[]
+0.7 -1.0 88 -5 -5 холодно 997.5 979.3
СВ 4-6
{6}
>70 км в посл. час снег 9/0 300 м
[]
+0.9 -1.1 86 -4 -4 прохладно 997.8 979.6
СВ 4-5
{6}
>70 км 10/9 300 м
[]
+0.9 -1.2 86 -4 -4 прохладно 997.9 979.7
СВ 4-6
{6}
50 км 10/0 300 м
[]
+1.0 -1.0 86 -4 -4 прохладно 997.9 979.7
СВ 4-7
{7}
55 км слаб. ливневой дождь 10/0 300 м
[]
+1.1 -0.8 87 -4 -4 прохладно 998.0 979.8
СВ 5-7
{7}
50 км слаб. ливневой снег 10/0 300 м
[]
+1.1 -0.5 89 -5 -5 холодно 998.3 980.1
СВ 4-6
{7}
8000 м слаб. снег 10/0 200 м
[]
+0.5 0.0 96 -5 -5 холодно 998.7 980.5
СВ 4-6
{6}
14 км слаб. дождь 10/0 200 м
[]
+0.9 +0.1 94 -5 -5 холодно 998.7 980.5
СВ 5-6
{7}
20 км слаб. дождь со снегом 10/0 200 м
[]
+1.0 +0.1 94 -5 -5 холодно 999.1 980.8
СВ 6-7
{8}
45 км слаб. дождь 10/0 300 м
[]
+1.2 -0.1 91 -5 -5 холодно 999.3 981.1 +0.3 +1.2
СВ 6-8
{9}
18 км слаб. дождь 10/0 200 м
[]
+1.1 +0.1 93 -5 -5 холодно 999.8 981.5
СВ 6-9
{9}
29 км слаб. дождь 10/10 200 м
[]
+1.2 +0.2 93 -5 -5 холодно 1000.1 981.9
СВ 6-8
{9}
45 км слаб. дождь 10/10 200 м
[]
+1.5 +0.2 91 -5 -5 холодно 1000.5 982.3
СВ 5-8
{9}
35 км слаб. морось 10/0 200 м
[]
+1.5 +0.2 91 -4 -4 прохладно 1001.0 982.7
СВ 5-8
{8}
13 км слаб. морось 10/0 200 м
[]
+1.5 +0.4 92 -4 -4 прохладно 1001.4 983.2
СВ 6-8
{9}
29 км слаб. морось 10/0 200 м
[]
+1.6 +0.4 92 -5 -5 холодно 1002.0 983.8
СВ 5-8
{8}
18 км слаб. дождь 10/0 200 м
[]
+1.4 +0.3 92 -4 -4 прохладно 1002.5 984.2
СВ 4-6
{8}
20 км слаб. дождь 10/0 200 м
[]
+1.3 +0.6 95 -4 -4 прохладно 1003.0 984.7
СВ 5-7
{7}
26 км слаб. морось 10/0 200 м
[]
+1.3 +0.5 94 -5 -5 холодно 1003.1 984.8
СВ 4-6
{8}
27 км слаб. морось 10/0 200 м
[]
+1.4 +0.5 94 -4 -4 прохладно 1003.7 985.4
СВ 5-7
{7}
27 км слаб. дождь 10/0 200 м
[]
+1.4 +0.4 93 -4 -4 прохладно 1003.9 985.6
С 3-5
{7}
21 км слаб. дождь 10/0 200 м
[]
+1.0 +0.3 95 -4 -4 прохладно 1004.4 986.0 +1.0 +1.7
С 3-5
{5}
40 км слаб. дождь 10/0 200 м
[]
+1.1 +0.5 96 -4 -4 прохладно 1004.8 986.5
С 4-6
{6}
35 км слаб. дождь 10/0 200 м
[]
+1.3 +0.4 94 -4 -4 прохладно 1005.2 986.8
СВ 4-6
{7}
40 км слаб. дождь 10/0 200 м
[]
+1.2 +0.5 95 -4 -4 прохладно 1005.5 987.2
СВ 3-5
{6}
29 км слаб. дождь 10/0 200 м
[]
+1.1 +0.4 95 -4 -4 прохладно 1005.8 987.4
СВ 3-4
{5}
15 км слаб. дождь 10/0 100 м
[]
+0.9 +0.4 96 -4 -4 прохладно 1006.1 987.7
С 3-4
{4}
11 км слаб. снег 10/0 100 м
[]
+0.7 +0.3 97 -4 -4 прохладно 1006.4 988.0
С 3-4
{4}
8000 м слаб. снег 10/0 100 м
[]
+0.4 0.0 97 -4 -4 прохладно 1006.6 988.2
СВ 2-3
{4}
7000 м слаб. снег 10/0 100 м
[]
+0.2 0.0 99 -4 -4 прохладно 1006.8 988.3
СВ 3-3
{4}
8000 м слаб. снег 10/0 100 м
[]
+0.3 0.0 98 -5 -5 холодно 1006.9 988.5
СВ 3-5
{5}
8000 м слаб. снег 10/0 100 м
[]
+0.3 0.0 98 -5 -5 холодно 1007.3 988.8
СВ 3-5
{5}
10 км слаб. снег 10/0 100 м
[]
+0.3 0.0 98 -5 -5 холодно 1007.4 989.0
СВ 3-4
{5}
7000 м слаб. снег 10/0 100 м
[]
+0.3 +0.1 99 -5 -5 холодно 1008.0 989.5 +0.2 +1.3
СВ 4-5
{5}
16 км слаб. дождь со снегом 10/0 100 м
[]
+0.4 +0.2 99 -5 -5 холодно 1008.2 989.8
СВ 4-5
{5}
10 км слаб. снег 10/0 100 м
[]
+0.6 +0.4 99 -5 -5 холодно 1008.7 990.3
СВ 4-5
{5}
8000 м слаб. снег 10/0 100 м
[]
+0.7 +0.4 98 -5 -5 холодно 1009.1 990.6
СВ 3-4
{5}
14 км слаб. дождь со снегом 10/10 100 м
[]
+0.9 +0.5 97 -4 -4 прохладно 1009.4 991.0
СВ 4-5
{5}
29 км слаб. дождь 10/10 200 м
[]
+1.2 +0.7 96 -4 -4 прохладно 1009.5 991.1
СВ 3-4
{5}
13 км слаб. дождь со снегом 10/10 100 м
[]
+1.1 +0.6 96 -4 -4 прохладно 1009.9 991.4
СВ 3-4
{4}
15 км слаб. дождь 10/10 100 м
[]
+1.0 +0.5 96 -4 -4 прохладно 1010.5 992.0
СВ 3-4
{4}
15 км слаб. дождь 10/10 100 м
[]
+0.7 +0.3 97 -4 -4 прохладно 1010.9 992.4
СВ 3-3
{5}
17 км слаб. дождь 10/0 100 м
[]
+0.5 +0.2 98 -4 -4 прохладно 1011.4 992.9
СВ 2-3
{4}
14 км слаб. снег 10/10 100 м
[]
+0.3 +0.1 99 -4 -4 прохладно 1011.8 993.3
С 3-3
{3}
24 км слаб. снег 10/0 1000 м
[]
+0.1 -0.1 99 -5 -5 холодно 1012.1 993.6 +0.1 +1.4
СВ 2-3
{3}
60 км в посл. час снег 5/1 1500 м
[]
-0.3 -0.6 98 -4 -4 прохладно 1012.5 993.9
СВ 2-2
{3}
50 км 9/9 2000 м
[]
-0.4 -0.6 99 -4 -4 прохладно 1012.8 994.2
СВ 2-2
{2}
45 км слаб. снег 10/10 600 м
[]
-0.3 -0.5 99 -4 -4 прохладно 1013.1 994.5
СВ 2-2
{2}
24 км слаб. снег 10/0 200 м
[]
-0.2 -0.5 98 -4 -4 прохладно 1013.6 995.0
СВ 2-2
{2}
12 км слаб. снег 10/10 200 м
[]
-0.3 -0.5 99 -4 -4 прохладно 1014.0 995.4
СВ 2-2
{2}
6000 м слаб. снег 10/0 600 м
[]
-0.4 -0.5 99 -4 -4 прохладно 1014.2 995.6
СВ 1-2
{2}
8000 м слаб. снег 10/10 50 м
[]
-0.5 -0.7 99 -3 -3 прохладно 1014.7 996.1
СВ 2-3
{3}
7000 м слаб. снег 10/10 50 м
[]
-0.7 -0.9 99 -5 -5 холодно 1015.1 996.4
СВ 1-2
{3}
16 км слаб. снег 10/10 50 м
[]
-0.9 -1.1 99 -3 -3 прохладно 1015.3 996.6
ЮВ 1-1
{2}
1600 м слаб. снег 10/0 50 м
[]
-0.8 -0.9 99 -3 -3 прохладно 1015.6 996.9
СЗ 1-1
{1}
20 км слаб. снег 10/10 100 м
[]
-0.7 -1.0 98 -3 -3 прохладно 1016.0 997.4
штиль 0-1
{1}
8000 м слаб. снег 10/0 100 м
[]
-0.4 -0.5 99 -2 -2 по сезону 1016.2 997.6 -1.1 +0.2
СВ 1-2
{2}
9000 м слаб. снег 10/10 50 м
[]
-0.6 -0.8 99 -3 -3 прохладно 1016.6 997.9
СВ 2-2
{2}
13 км слаб. снег 10/0 600 м
[]
-0.5 -0.7 99 -4 -4 прохладно 1017.2 998.5
СВ 2-2
{2}
6000 м слаб. снег 10/0 200 м
[]
-0.1 -0.4 98 -4 -4 прохладно 1017.4 998.8
СВ 1-2
{2}
29 км слаб. ливневой снег 10/10 50 м
[]
-0.1 -0.4 98 -2 -2 по сезону 1017.5 998.8
В 1-2
{2}
50 км в посл. час дождь 10/0 300 м
[]
+0.3 0.0 98 -2 -2 по сезону 1017.6 999.0
ЮВ 2-3
{3}
35 км в посл. час дождь 10/0 300 м
[]
+0.8 +0.2 96 -3 -3 прохладно 1017.9 999.3
Ю 1-2
{3}
35 км слаб. ливневой дождь 10/0 300 м
[]
+0.8 +0.4 97 -1 -1 по сезону 1018.0 999.5
Ю 1-2
{2}
45 км в посл. час дождь 10/10 200 м
[]
+0.7 +0.1 96 -1 -1 по сезону 1017.9 999.3
Ю 2-4
{4}
50 км 8/0 600 м
[]
+0.7 -1.4 86 -3 -3 прохладно 1018.1 999.5
ЮЗ 1-3
{4}
60 км 9/0 600 м
[]
-0.1 -0.9 94 -2 -2 по сезону 1018.4 999.7
ЮЗ 1-1
{2}
65 км 10/0 1000 м
[]
-0.4 -1.1 95 -3 -3 прохладно 1018.5 999.8
ЮЗ 3-4
{4}
50 км 10/0 600 м
[]
-0.3 -1.4 92 -5 -5 холодно 1018.5 999.9 -0.6 +0.9
ЮЗ 4-6
{6}
>70 км 10/10 200 м
[]
-0.6 -1.9 91 -6 -6 холодно 1018.9 1000.2
Ю 3-4
{5}
>70 км 9/0 200 м
[]
-1.7 -2.9 91 -7 -7 холодно 1019.4 1000.6
Ю 3-4
{5}
50 км 10/0 200 м
[]
-2.1 -3.4 91 -7 -7 холодно 1019.7 1000.9
ЮЗ 2-3
{3}
>70 км 9/0 200 м
[]
-2.2 -3.4 91 -6 -6 холодно 1019.7 1000.9
ЮЗ 3-3
{4}
>70 км 9/9 100 м
[]
-2.5 -3.5 93 -8 -8 очень
холодно
1019.7 1000.8
Местоположение метеостанции Аэропорт Ивало (Финляндия): широта 68.61 долгота 27.41 высота над уровнем моря 147 м.
В архиве по умолчанию представлена погода в Аэропорту Ивало за последнюю неделю. Архивные данные за месяц целиком и за предыдущие месяцы, начиная с января 2011 года, Вы можете получить, выбрав интересующий диапазон дат из раскрывающегося списка и нажав кнопку "Найти!".
*Определитесь, кто Вы:
Внимание! Время в таблицах - всемирное. Для получения местного времени необходимо прибавить поправку, которая равна 1 ч.
Смотрите также архив погоды в соседних городах и на ближайших метеорологических станциях:
Партнеры нашего сайта:      
Пояснения к столбцам:
  • Ветер - указаны скорость ветра в м/с - средняя за 10 мин, порывы в срок и между сроками (в фигурных скобках) и направление, откуда дует ветер: С - северный,
  • СВ - северо-восточный, В - восточный, ЮВ - юго-восточный, Ю - южный, ЮЗ - юго-западный, З - западный, СЗ - северо-западный.
  • Видимость - горизонтальная дальность видимости в метрах или километрах. При видимости от 1 до 10 км при отсутствии осадков обычно наблюдается дымка, при ухудшении видимости до 1 км и менее - туман. В сухую погоду видимость может ухудшаться дымом, пылью или мглою.
  • Явления - указаны атмосферные явления, наблюдавшиеся в срок или в последний час перед сроком; фигурными скобками обозначены явления, наблюдавшиеся между сроками (за 1-3 часа до срока); квадратными скобками обозначены град или гололедные отложения с указанием их диаметра в мм.
  • Облачность - указаны через наклонную черту общая и нижняя облачность в баллах и высота нижней границы облаков в метрах; квадратными скобками обозначены формы облаков: Ci - перистые, Cs - перисто-слоистые, Cc - перисто-кучевые, Ac - высококучевые, As - высокослоистые, Sc - слоисто-кучевые, Ns - слоисто-дождевые, Cu - кучевые, Cb - кучево-дождевые. Подробнее классификацию облаков см. в Атласе облаков (PDF).
  • T - Температура воздуха - температура, измеренная на высоте 2 м над землей.
  • Td - Температура точки росы - температура, при понижении до которой содержащийся в воздухе водяной пар достигнет насыщения.
  • f - Относительная влажность воздуха - влажноcть воздуха, измеренная на высоте 2 м над землей.
  • Te - Эффективная температура - температура, которую ощущает одетый по сезону человек в тени. Характеристика душности погоды. При расчете учитывается влияние влажности воздуха и скорости ветра на теплоощущения человека.
  • Tes - Эффективная температура на солнце - температура, которую ощущает человек, с поправкой на солнечный нагрев. Характеристика знойности погоды. Зависит от высоты солнца над горизонтом, облачности и скорости ветра. Ночью, в пасмурную погоду, а также при ветре 12 м/с и более поправка равна нулю.
  • P - Атмосферное давление - приведенное к уровню моря атмосферное давление.
  • Po - Атмосферное давление - измеренное на уровне метеостанции атмосферное давление.
  • Tmin - Минимальная температура - минимум температуры воздуха на высоте 2 м над землей.
  • Tmax - Максимальная температура - максимум температуры воздуха на высоте 2 м над землей.
  • R - Количество осадков - Количество выпавших осадков за период времени, мм. При наведении курсора мыши на число - период времени, за который выпало указанное количество осадков.
  • R24 - Количество осадков - Количество выпавших осадков за 24 часа, мм.
  • S - Снежный покров - Высота снежного покрова, см. При наведении курсора мыши на число - состояние снежного покрова и степень покрытия местности в баллах.